K9UO Weather Reports


time (UTC)temp
C
wind
direction
speed
KPH
gust
KPH
rain 1hr
cm
rain 24hr
cm
rain mn
cm
humidity
%
barometer
mb
20260505060015 17 300 12.9 22.5 0.00 0.00 0.00 54 1005.2
20260505054511 18 318 8.0 16.1 0.00 0.00 0.00 57 1004.5
20260505053007 18 307 8.0 20.9 0.00 0.00 0.00 57 1003.9
20260505051506 18 213 14.5 25.7 0.00 0.00 0.00 57 1002.7
20260505041600 18 204 11.3 17.7 0.00 0.00 0.00 57 1002.2
20260505040056 18 205 11.3 22.5 0.00 0.00 0.00 57 1002.5
20260505034550 18 206 11.3 20.9 0.00 0.00 0.00 57 1002.6
20260505033050 18 219 12.9 19.3 0.00 0.00 0.00 57 1002.7
20260505031604 18 202 9.7 17.7 0.00 0.00 0.00 57 1002.9
20260505030048 18 213 9.7 19.3 0.00 0.00 0.00 57 1002.9
20260505024548 18 208 11.3 19.3 0.00 0.00 0.00 57 1002.8
20260505023052 19 360 11.3 17.7 0.00 0.00 0.00 56 1002.9
20260505021547 19 195 9.7 16.1 0.00 0.00 0.00 56 1002.8
20260505020046 19 196 9.7 17.7 0.00 0.00 0.00 55 1002.6
20260505014546 19 360 8.0 12.9 0.00 0.00 0.00 56 1002.5
20260505013052 19 206 6.4 12.9 0.00 0.00 0.00 56 1002.5
20260505011543 19 202 6.4 12.9 0.00 0.00 0.00 56 1002.4
20260505010044 20 213 8.0 16.1 0.00 0.00 0.00 54 1002.4
20260505004549 20 225 9.7 16.1 0.00 0.00 0.00 54 1002.3
20260505003043 20 189 9.7 16.1 0.00 0.00 0.00 55 1002.1
20260505001543 20 360 11.3 17.7 0.00 0.00 0.00 55 1002.0
20260505000057 20 200 12.9 25.7 0.00 0.00 0.00 55 1002.1
20260504234540 20 203 11.3 20.9 0.00 0.00 0.00 55 1002.3
20260504233040 20 194 11.3 20.9 0.00 0.00 0.00 55 1002.2
20260504231536 20 187 11.3 24.1 0.00 0.00 0.00 56 1002.8
20260504230038 20 205 9.7 24.1 0.00 0.00 0.00 57 1003.2
20260504224534 21 214 14.5 22.5 0.00 0.00 0.00 53 1003.4
20260504223033 21 205 14.5 25.7 0.00 0.00 0.00 53 1003.4
20260504221540 21 213 14.5 33.8 0.00 0.00 0.00 53 1003.6
20260504220032 22 211 16.1 37.0 0.00 0.00 0.00 49 1003.6
20260504214534 22 201 19.3 33.8 0.00 0.05 0.00 46 1003.5
20260504213032 23 227 20.9 32.2 0.00 0.05 0.00 42 1003.0
20260504211528 23 219 17.7 29.0 0.00 0.05 0.00 43 1003.0
20260504210025 22 219 24.1 41.8 0.00 0.05 0.00 44 1003.4
20260504204525 22 205 16.1 25.7 0.00 0.08 0.00 47 1003.5
20260504203025 22 222 22.5 41.8 0.00 0.08 0.00 48 1003.8
20260504201522 22 231 19.3 41.8 0.00 0.08 0.00 49 1003.8
20260504200021 22 245 25.7 41.8 0.00 0.08 0.00 48 1004.2
20260504194519 22 234 25.7 51.5 0.00 0.08 0.00 47 1004.2
20260504193018 22 235 27.4 40.2 0.00 0.08 0.00 48 1004.4
20260504191517 22 216 22.5 46.7 0.00 0.08 0.00 49 1004.4
20260504190016 22 360 25.7 41.8 0.00 0.08 0.00 49 1004.6
20260504184515 22 223 20.9 33.8 0.00 0.08 0.00 50 1004.4
20260504183011 22 210 17.7 33.8 0.00 0.08 0.00 52 1004.6
20260504181509 22 360 16.1 33.8 0.00 0.08 0.00 52 1004.7
20260504180010 22 254 16.1 32.2 0.00 0.08 0.00 51 1004.7
20260504174507 21 360 16.1 35.4 0.00 0.08 0.00 52 1004.8
20260504173005 22 360 17.7 29.0 0.00 0.08 0.00 51 1004.8
20260504171503 21 190 20.9 32.2 0.00 0.08 0.00 52 1004.9
20260504081537 10 204 9.7 16.1 0.00 0.08 0.00 51 1008.3